Lincoln Laboratory Near-Earth Asteroid Research project
軌道要素
Orbital elements by K. Muraoka,
from 39 observations 1999 May 15 to June 11,
m.e. = +/- 0.62 arc seconds.
T = 1999 Nov. 17.6097 TT
Peri. = 95.1593
Node = 264.4841 (2000.0)
Incl. = 118.9108
q = 3.780395 AU
e = 1.0
星図
光度変化
m1 = 9.3 + 5 logΔ + 10.0 log r
軌道要素は村岡健治氏の計算によるものです。
星図は StellaNavigator Ver.2.0 for Windows
(アストロアーツ
編著 / アスキー出版局刊) で作成したものです。
光度グラフはComet for
Windowsで作成したものです。
Copyright(C) Seiichi Yoshida (comet@aerith.net). All rights reserved.